Regional Weather Roundup
Issued by NWS

Home | Current Version | Previous Version | Graphics & Text | Print | Product List | Glossary On
Versions: 1 2 3 4 5 6 7 8 9 10 11 12 13 14 15 16 17 18 19 20 21 22 23 24 25 26 27 28 29 30 31 32 33 34 35 36 37 38 39 40 41 42 43 44 45 46 47 48 49 50
000
ASUS43 KOAX 271102
RWRNE

WEATHER ROUNDUP FOR NEBRASKA
NATIONAL WEATHER SERVICE OMAHA NE
600 AM CDT SAT MAY 27 2017

NOTES: SATELLITE DATA IS BEING USED TO AUGMENT CLOUD COVER ABOVE
       12000 FEET.
       "FAIR" INDICATES FEW OR NO CLOUDS BELOW 12,000 FEET WITH NO
       SIGNIFICANT WEATHER AND/OR OBSTRUCTIONS TO VISIBILITY.

  * THESE STATIONS DO NOT REPORT WEATHER SUCH AS RAIN...SNOW OR FOG.

NEZ001>004-019>022-054>056-271200-
NEBRASKA PANHANDLE

CITY           SKY/WX    TMP DP  RH WIND       PRES   REMARKS
SCOTTSBLUFF    CLOUDY    49  47  93 NW6       30.01R
ALLIANCE       CLOUDY    49  48  97 NE6       29.96F
CHADRON        CLOUDY    50  48  93 CALM      30.00R
GORDON         RAIN      49  48  95 CALM      29.98F
KIMBALL        CLOUDY    45  44  97 CALM      30.00S
SIDNEY         CLOUDY    51  49  92 N6        29.98F
$$

NEZ057>060-069>072-079>082-271200-
SOUTHWEST NEBRASKA

CITY           SKY/WX    TMP DP  RH WIND       PRES   REMARKS
NORTH PLATTE   MOCLDY    52  50  93 NE3       29.93R
IMPERIAL       LGT RAIN  52  51  97 N12       29.92R
LEXINGTON      CLOUDY    55  52  90 NE8       29.91R
MCCOOK         CLOUDY    57  55  93 N12       29.87F
OGALLALA       PTCLDY    51  50  96 NW5       29.96R
$$

NEZ005>010-023>029-035>040-094-271200-
NORTH CENTRAL NEBRASKA

CITY           SKY/WX    TMP DP  RH WIND       PRES   REMARKS
VALENTINE      CLOUDY    53  47  79 NW6       29.97R
AINSWORTH      CLOUDY    53  52  97 W6        29.96R
BROKEN BOW     CLOUDY    54  51  90 NE6       29.92R
O`NEILL        LGT RAIN  54  52  92 E7        29.89F
ORD            CLOUDY    55  50  83 NE6       29.91F
THEDFORD       CLOUDY    51  50  97 CALM      29.96R
$$

NEZ041-046>049-061>064-073>077-083>087-271200-
SOUTH CENTRAL NEBRASKA

CITY           SKY/WX    TMP DP  RH WIND       PRES   REMARKS
GRAND ISLAND   LGT RAIN  56  54  93 NE9       29.92F
AURORA         RAIN      58  50  74 W15       29.96R
HASTINGS       RAIN      57  52  83 E8        29.94F
HEBRON         CLOUDY    59  55  88 E3        29.93S
HOLDREGE       CLOUDY    56  52  85 NE9       29.88R
KEARNEY *      CLOUDY    57  48  72 CALM      29.90R
YORK           CLOUDY    59  46  63 E3        29.90R
$$

NEZ011>018-030>034-042>045-271200-
NORTHEAST NEBRASKA

CITY           SKY/WX    TMP DP  RH WIND       PRES   REMARKS
NORFOLK        LGT RAIN  56  49  77 NW5       29.93R
ALBION         LGT RAIN  57  50  76 CALM      29.93S
BLAIR          CLOUDY    59  47  63 NE7       29.87S
FREMONT        CLOUDY    56  47  71 CALM      29.89R
TEKAMAH        MOCLDY    54  47  77 N3        29.87F
WAYNE          CLOUDY    55  54  94 S5        29.92R
$$

NEZ050>053-065>068-078-088>093-271200-
SOUTHEAST NEBRASKA

CITY           SKY/WX    TMP DP  RH WIND       PRES   REMARKS
LINCOLN        CLOUDY    62  47  57 NE3       29.88S
OMAHA EPPLEY   CLOUDY    56  49  77 NW6       29.88R
BEATRICE       CLOUDY    63  49  59 NE8       29.86F
FALLS CITY     CLOUDY    64  53  67 NE6       29.83R
NEBRASKA CITY  CLOUDY    63  43  47 NE8       29.87R
PLATTSMOUTH    CLOUDY    64  45  49 N3        29.89R
$$

NEZ044-045-051>053-067-271200-
OMAHA AREA

CITY           SKY/WX    TMP DP  RH WIND       PRES   REMARKS
OMAHA EPPLEY   CLOUDY    56  49  77 NW6       29.88R
BLAIR          CLOUDY    59  47  63 NE7       29.87S
FREMONT        CLOUDY    56  47  71 CALM      29.89R
MILLARD        MOCLDY    64  47  52 CALM      29.88R
OFFUTT AFB     CLOUDY    61  45  56 CALM      29.87R
PLATTSMOUTH    CLOUDY    64  45  49 N3        29.89R
WAHOO          PTSUNNY   56  47  71 N3        29.88S
$$




USA.gov is the U.S. government's official web portal to all federal, state and local government web resources and services.